Regional Weather Roundup
Issued by NWS

Home | Current Version | Previous Version | Graphics & Text | Print | Product List | Glossary On
Versions: 1 2 3 4 5 6 7 8 9 10 11 12 13 14 15 16 17 18 19 20 21 22 23 24 25 26 27 28 29 30 31 32 33 34 35 36 37 38 39 40 41 42 43 44 45 46 47 48 49 50
798
ASUS45 KBOU 220710
RWRCO

WEATHER ROUNDUP FOR COLORADO
NATIONAL WEATHER SERVICE PUEBLO CO
100 AM MDT SUN APR 22 2018

NOTE: "FAIR" INDICATES FEW OR NO CLOUDS BELOW 12000 FEET WITH NO
SIGNIFICANT WEATHER AND/OR OBSTRUCTIONS TO VISIBILITY.

COZ001>005-013-030-031-220800-
...NORTHWEST COLORADO...

CITY           SKY/WX    TMP DP  RH WIND       PRES   REMARKS
CRAIG          CLEAR     39  34  82 E6        30.21R
HAYDEN         CLEAR     38  33  82 E9        30.24R
MEEKER         CLEAR     36  32  85 NE7       30.23R
RABBIT EARS PA NOT AVBL
STEAMBOAT SPGS FAIR      33  32  98 CALM      30.24R
WALDEN         FAIR      27  23  86 SE9       30.25S WCI  17
$$

COZ006>008-011-220800-
...WEST CENTRAL VALLEYS...

CITY           SKY/WX    TMP DP  RH WIND       PRES   REMARKS
GRAND JUNCTION CLEAR     47  35  63 SE10      30.18R
MONTROSE       CLEAR     41  31  67 SE6       30.24R
EAGLE          CLEAR     31  30  96 CALM      30.28S
RIFLE          CLEAR     39  35  86 CALM      30.24R
DELTA          NOT AVBL
NUCLA          NOT AVBL
$$

COZ017>023-064>068-220800-
...SOUTHWEST COLORADO...

CITY           SKY/WX    TMP DP  RH WIND       PRES   REMARKS
DURANGO        CLEAR     39  17  41 CALM      30.19S
CORTEZ         CLEAR     37  22  54 NE8       30.20F
PAGOSA SPRINGS FAIR      43  15  32 N5        30.25R
TELLURIDE      CLEAR     33  26  77 SE7       30.33S WCI  27
WOLF CREEK PAS CLEAR     23  14  68 N13       30.40S WCI  11
$$

COZ009-010-012-014-032>034-037-058>063-220800-
...CENTRAL COLORADO...

CITY           SKY/WX    TMP DP  RH WIND       PRES   REMARKS
ASPEN          CLEAR     31  27  85 S6        30.27S WCI  25
BUENA VISTA    FAIR      35  27  72 SW6       30.24R WCI  30
COPPER MTN     NOT AVBL
BERTHOUD PASS  CLOUDY    21  12  68 N26G38    30.30F WCI   4
COTTONWOOD PAS CLEAR     37  27  65 W10G21    30.27R
GUNNISON       CLEAR     30  26  85 N5        30.29R WCI  25
KREMMLING      PTCLDY    36  32  87 CALM      30.27R
LEADVILLE      CLEAR     22  21  96 E5        30.28R WCI  16
MONARCH PASS     N/A     23  21  93 W18       30.43F WCI   9
SALIDA         FAIR      32  30  92 CALM      30.31S
SUNLIGHT       CLEAR     28  27  93 W7        30.38S WCI  21
WILKERSON PASS MOCLDY    28  19  69 N9G17     30.31R WCI  20
$$

COZ069>075-220800-
...SAN LUIS VALLEY/SANGRE DE CRISTO MOUNTAINS...

CITY           SKY/WX    TMP DP  RH WIND       PRES   REMARKS
ALAMOSA        CLEAR     35  24  64 N7        30.23S WCI  29
DEL NORTE      FAIR      38  22  52 W15       30.25F
LA VETA PASS   CLEAR     30  25  80 SW13      30.38S WCI  20
SAGUACHE       NOT AVBL
$$

COZ035-036-038>040-220800-
...NORTHERN COLORADO FRONT RANGE...

CITY           SKY/WX    TMP DP  RH WIND       PRES   REMARKS
DENVER INTL AP CLEAR     35  31  85 W9        30.15F WCI  28
DMNS CITY PARK NOT AVBL
AURORA         PTCLDY    35  34  97 SW9       30.15F WCI  27
FRONT RANGE AP FAIR      37  34  88 SW7       30.16S
ERIE MUNI ARPT FAIR      33  32  96 CALM      30.22S
BOULDER MUN AP FAIR      36  34  93 CALM      30.14F
CENTENNIAL     PTCLDY    34  32  92 S5        30.16S WCI  30
BROOMFIELD     CLEAR     34  34 100 SW3       30.16F
LOVELAND       CLEAR     34  32  92 SE5       30.16F WCI  30
LONGMONT       FAIR      34  32  93 CALM      30.17F FOG
$$

COZ041-046-047-076>085-087-088-220800-
...PIKES PEAK/PALMER DIVIDE AND SOUTHERN FOOTHILLS...

CITY           SKY/WX    TMP DP  RH WIND       PRES   REMARKS
COLO. SPRINGS  CLOUDY    36  33  89 S5        30.20F
A. F. ACADEMY  CLOUDY    36  32  86 S5        30.19F
SCHRIEVER AFB  NOT AVBL
CHEYENNE MTN   NOT AVBL
ELLICOTT         N/A    N/A N/A N/A W5        30.18F
FALCON         CLOUDY    34  32  91 SW6       30.20F WCI  29
FORT CARSON    CLOUDY    38  34  88 SE7       30.19S
LIMON          CLOUDY    35  34  96 S7        30.19S WCI  29
MONUMENT HILL  CLOUDY    32  32 100 S9G16     30.19F WCI  24
CANON CITY     FAIR      36  36 100 N5        30.19S
WALSENBURG     FAIR      36  34  93 W7        30.19S
TRINIDAD       CLOUDY    40  35  83 SE3       30.20S
$$

COZ042>045-048>051-090-091-220800-
...NORTHEAST COLORADO...

CITY           SKY/WX    TMP DP  RH WIND       PRES   REMARKS
GREELEY ARPT   CLEAR     33  32  96 NW3       30.17F FOG
AKRON          CLOUDY    35  35 100 SE8       30.20S FOG     WCI  29
BURLINGTON     CLOUDY    37  36  96 CALM      30.21F
WRAY           FAIR      34  34 100 SW3       30.22R FOG
YUMA           NOT AVBL
STERLING       NOT AVBL
HOLYOKE        MOCLDY    37  36  93 CALM      30.21R FOG
FORT MORGAN    CLOUDY    38  34  87 SE5       30.21R
$$

COZ086-089-092>099-220800-
...SOUTHEAST COLORADO...

CITY           SKY/WX    TMP DP  RH WIND       PRES   REMARKS
PUEBLO         MOCLDY    42  39  89 SE8       30.19F
LA JUNTA       CLOUDY    42  40  92 SE6       30.20F
LAMAR          CLOUDY    41  37  86 SE5       30.21S
SPRINGFIELD      N/A     38  37  97 NE8       30.20F
$$





USA.gov is the U.S. government's official web portal to all federal, state and local government web resources and services.